Tracking 30995 objects as of 5-Jul-2025
HD Live streaming from Space Station
objects crossing your sky now

H-2A R/B

Track H-2A R/B now!


NORAD ID: 26899
Int'l Code: 2001-038B
Perigee: 239.3 km
Apogee: 31,318.9 km
Inclination: 28.1 °
Period: 546.8 minutes
Semi major axis: 22150 km
RCS: 21.6349 m2 (large)
Launch date: August 29, 2001
Source: Japan (JPN)
Launch site: TANEGASHIMA SPACE CENTER (TNSTA)

Note: This is a ROCKET BODY
Your satellite tracking list
Your tracking list is empty




NASA's NSSDC Master Catalog

Two Line Element Set (TLE):
1 26899U 01038B   25185.51056439  .00005988  00000-0  92669-3 0  9995
2 26899  28.1292 279.1611 7015696  28.5120 356.2321  2.63353835210990
Source of the keplerian elements: AFSPC